Regional Weather Roundup
Issued by NWS

Home | Current Version | Previous Version | Graphics & Text | Print | Product List | Glossary On
Versions: 1 2 3 4 5 6 7 8 9 10 11 12 13 14 15 16 17 18 19 20 21 22 23 24 25 26 27 28 29 30 31 32 33 34 35 36 37 38 39 40 41 42 43 44 45 46 47 48 49 50
000
ASUS43 KBIS 242320
RWRND

NORTH DAKOTA REGIONAL WEATHER ROUNDUP
NATIONAL WEATHER SERVICE BISMARCK ND
600 PM CDT SUN MAY 24 2015

NOTE: "FAIR" INDICATES FEW OR NO CLOUDS BELOW 12,000 FEET WITH NO
SIGNIFICANT WEATHER AND/OR OBSTRUCTIONS TO VISIBILITY.


NDZ001>003-009>011-017-250000-
NORTHWEST NORTH DAKOTA

CITY           SKY/WX    TMP DP  RH WIND       PRES   REMARKS
WILLISTON      MOSUNNY   76  38  25 E7        29.92F
MINOT          CLOUDY    73  42  32 E16       29.93F
MINOT AFB      PTSUNNY   75  42  30 E10       29.91F
$$

NDZ018>021-031>035-040>046-250000-
SOUTHWEST NORTH DAKOTA

CITY           SKY/WX    TMP DP  RH WIND       PRES   REMARKS
BISMARCK       CLOUDY    65  54  67 SE3       29.92F
DICKINSON      CLOUDY    65  49  56 E13       29.92F
GARRISON         N/A     69  47  45 SE9       29.93F
HETTINGER ARPT CLOUDY    62  50  64 NE14      29.93F
$$

NDZ004>008-012>016-024-026-027-054-250000-
NORTHEAST NORTH DAKOTA

CITY           SKY/WX    TMP DP  RH WIND       PRES   REMARKS
GRAND FORKS    CLOUDY    75  48  38 E5        29.91F
GRND FRKS AFB  CLOUDY    74  48  39 SE6       29.92F
DEVILS LAKE    CLOUDY    70  48  46 SE9       29.93F
$$

NDZ022-023-025-028>030-036>039-047>053-250000-
SOUTHEAST NORTH DAKOTA

CITY           SKY/WX    TMP DP  RH WIND       PRES   REMARKS
FARGO          CLOUDY    70  53  54 E9        29.91S
JAMESTOWN      CLOUDY    66  51  58 E14       29.91F
$$



USA.gov is the U.S. government's official web portal to all federal, state and local government web resources and services.